Regional Weather Roundup
Issued by NWS San Angelo, TX

Home | Current Version | Previous Version | Text Only | Print | Product List | Glossary On
Versions: 1 2 3 4 5 6 7 8 9 10 11 12 13 14 15 16 17 18 19 20 21 22 23 24 25 26 27 28 29 30 31 32 33 34 35 36 37 38 39 40 41 42 43 44 45 46 47 48 49 50
000
ASUS44 KSJT 200710
RWRSJT
WEST CENTRAL TEXAS REGIONAL WEATHER ROUNDUP
NATIONAL WEATHER SERVICE SAN ANGELO TX
100 AM CST FRI JAN 20 2017

NOTE: "FAIR" INDICATES FEW OR NO CLOUDS BELOW 12,000 FEET WITH NO
SIGNIFICANT WEATHER AND/OR OBSTRUCTIONS TO VISIBILITY.

TXZ049-054-064>066-071>073-076>078-098-099-113-114-127-128-139-140-
154-155-168>170-200800
...LOCATIONS ACROSS WEST CENTRAL TEXAS...

CITY           SKY/WX    TMP DP  RH WIND       PRES   REMARKS
SAN ANGELO     CLEAR     51  31  46 W12       29.72S
ABILENE        CLEAR     48  34  58 SW7       29.67S
DYESS AFB      CLEAR     54  30  39 SW17      29.64F
JUNCTION       CLEAR     44  38  79 CALM      29.75F
SWEETWATER     CLEAR     51  34  52 SW13      29.70S
BROWNWOOD      CLEAR     48  36  61 MISG      29.69S
COLEMAN        SUNNY     55  30  38 W13G20    29.68S
SONORA         CLEAR     43  34  70 CALM      29.80S
OZONA          FAIR      41  32  70 MISG      29.80S
BRADY          NOT AVBL
$$

TEXAS PANHANDLE/OKLAHOMA PANHANDLE

CITY           SKY/WX    TMP DP  RH WIND       PRES   REMARKS
AMARILLO       CLOUDY    44  33  65 SW15      29.50F WCI  37
BORGER         CLOUDY    34  34 100 NE6       29.48F FOG     WCI  29
CANADIAN       CLOUDY    32  32  99 CALM      29.52F
DALHART        CLOUDY    39  36  89 E7        29.46F WCI  34
DUMAS          CLOUDY    35  33  94 SE8       29.47F WCI  28
GUYMON         NOT AVBL
HEREFORD       SUNNY     48  35  60 W22G33    29.53F
PAMPA          CLOUDY    42  37  83 SE8       29.51F WCI  36
PERRYTON       NOT AVBL
$$

SOUTHERN PANHANDLE/SOUTH PLAINS/ROLLING PLAINS

CITY           SKY/WX    TMP DP  RH WIND       PRES   REMARKS
LUBBOCK        PTCLDY    48  34  58 W22G30    29.61F
SNYDER         CLEAR     47  34  60 SW16      29.67S
CHILDRESS      PTCLDY    45  35  68 SW7       29.55F
SEMINOLE       SUNNY     46  32  57 W15       29.73S WCI  40
$$

PERMIAN BASIN

CITY           SKY/WX    TMP DP  RH WIND       PRES   REMARKS
MIDLAND        CLEAR     52  30  43 W20       29.74S
ODESSA         CLEAR     51  30  44 W15       29.75F
WINK           PTCLDY    53  30  41 W16       29.77S
$$

FAR WEST/SOUTHWEST MOUNTAINS/TRANS PECOS

CITY           SKY/WX    TMP DP  RH WIND       PRES   REMARKS
ALPINE         PTSUNNY   50  28  41 W14       29.91F
DRYDEN           N/A     52  29  41 W8        29.78S
EL PASO        PTCLDY    45  29  53 S10       29.87S WCI  40
FORT STOCKTON  CLEAR     47  28  47 SW12      29.81F
GUADALUPE PASS NOT AVBL
MARFA          CLOUDY    43  24  47 CALM      29.90F
PECOS          MOSUNNY   45  30  55 S5        29.81F
$$

DALLAS/FORT WORTH METROPLEX

CITY           SKY/WX    TMP DP  RH WIND       PRES   REMARKS
DFW AIRPORT    PTCLDY    53  51  93 S10       29.59F
FTW MEACHAM    CLEAR     55  42  61 S8        29.60F
DAL-EXECUTIVE  CLEAR     55  51  86 VRB6      29.61F
GRAND PRAIRIE  CLEAR     54  53  99 S8        29.63F
ADDISON        CLEAR     55  53  92 SW5       29.63F
MESQUITE       SUNNY     53  52  97 S8        29.64S
LANCASTER      SUNNY     54  51  92 S7        29.64F
$$

NORTH CENTRAL TEXAS

CITY           SKY/WX    TMP DP  RH WIND       PRES   REMARKS
SHRMAN/DENISON CLOUDY    53  53 100 S14       29.59F
GAINESVILLE    PTCLDY    48  46  93 SW3       29.59S
BRIDGEPORT     SUNNY     53  39  60 SW7       29.59F
DENTON         CLOUDY    51  48  89 S10       29.59S
WAXAHACHIE     SUNNY     52  52 100 S8        29.65S
GRANBURY       SUNNY     56  38  50 S10       29.64S
$$

WESTERN NORTH TEXAS

CITY           SKY/WX    TMP DP  RH WIND       PRES   REMARKS
WICHITA FALLS  CLOUDY    51  37  58 SW14      29.53F
VERNON         MOSUNNY   49  34  58 SW13      29.55R
BRECKENRIDGE   SUNNY     53  35  49 SW13      29.63R
COMANCHE       CLEAR     58  33  38 SW12G18   29.67S
$$

CENTRAL AND SOUTH CENTRAL TEXAS

CITY           SKY/WX    TMP DP  RH WIND       PRES   REMARKS
AUSTIN/BERGSTM CLEAR     57  54  89 SW9       29.72F
WACO           CLEAR     54  52  93 S9        29.68F
HILLSBORO      SUNNY     54  52  94 S13       29.66S
TEMPLE         CLEAR     51  50  96 S7        29.71F
KILLEEN-GRAY   CLEAR     55  46  71 SW9       29.70S
FORT HOOD      CLEAR     54  47  77 S6        29.67F
GEORGETOWN     CLEAR     54  46  76 W3        29.72S
LAGO VISTA     FAIR      56  49  75 W5        29.73S
SAN MARCOS     CLEAR     48  46  93 CALM      29.75S
NEW BRAUNFELS  CLEAR     51  50  96 CALM      29.74S FOG
RANDOLPH AFB   CLEAR     57  57 100 SW6       29.74F
SAN ANTONIO    CLEAR     50  47  89 CALM      29.75F
STINSON        CLEAR     51  48  89 CALM      29.74F
PLEASANTON     NOT AVBL
LA GRANGE      FOG       60  59  98 S10       29.72F VSB 1
GIDDINGS       CLOUDY    56  56  99 S9        29.74S FOG
$$

EAST TEXAS

CITY           SKY/WX    TMP DP  RH WIND       PRES   REMARKS
PARIS          CLOUDY    54  52  94 S14       29.63S
CLARKSVILLE    NOT AVBL
TYLER          CLOUDY    58  56  93 S14       29.67F
LONGVIEW       MOCLDY    58  57  97 S14       29.68F
PALESTINE      CLOUDY    57  57 100 S9        29.70F FOG
NACOGDOCHES    CLOUDY    59  55  88 S7        29.71F
$$

TEXAS HILL COUNTRY AND EDWARDS PLATEAU

CITY           SKY/WX    TMP DP  RH WIND       PRES   REMARKS
LLANO          SUNNY     52  41  66 NW7       29.76S
HORSESHOE BAY  FAIR      56  42  58 CALM      29.72F
KERRVILLE      CLEAR     43  41  92 N3        29.75F
FREDERICKSBRG  CLEAR     51  40  68 W5        29.75S
ROCKSPRINGS    SUNNY     55  39  54 CALM      29.79F
HONDO          CLEAR     49  45  86 N3        29.76F
UVALDE         SUNNY     47  43  85 CALM      29.76F
DEL RIO        CLEAR     48  43  82 N3        29.74F
$$

SOUTHEAST TEXAS

CITY           SKY/WX    TMP DP  RH WIND       PRES   REMARKS
COLLEGE STN    CLOUDY    59  59 100 S9        29.72F FOG
CALDWELL       NOT AVBL
CROCKETT       CLOUDY    57  55  94 S7        29.74F FOG
BRENHAM        CLOUDY    61  61  99 S9        29.75S FOG
HUNTSVILLE     CLOUDY    60  58  92 S10       29.72F
CONROE         CLOUDY    61  59  93 SW10      29.75F
HOUSTON BUSH   PTCLDY    58  57  97 S3        29.75F FOG
HOUSTON HOBBY  FOG       59  58  96 S3        29.74F VSB 1/4
PERLAND        FOG       60  58  92 S3        29.76F VSB 1/4
WHARTON        HVY RAIN  58  57  99 CALM      29.77S VSB 1/4
$$

THE UPPER TEXAS COAST

CITY           SKY/WX    TMP DP  RH WIND       PRES   REMARKS
ORANGE         PTSUNNY  N/A N/A N/A S7        29.78F
PORT ARTHUR    MOCLDY    63  61  93 S6        29.76F
GALVESTON      CLEAR     64  63  96 SW5       29.76F
ANGLETON       FOG       58  57  97 S6        29.76S VSB 1/4
BAY CITY       FOG       56  56 100 CALM      29.76F VSB 1/2
$$

TEXAS COASTAL BEND, RIO GRANDE PLAINS DEEP SOUTH TEXAS

CITY           SKY/WX    TMP DP  RH WIND       PRES   REMARKS
VICTORIA       CLOUDY    61  60  97 S8        29.76F FOG
BEEVILLE       FOG       52  52 100 S8        29.75F VSB 1/4
ROCKPORT       CLOUDY    63  62  97 VRB6      29.75F FOG
PORT ARANSAS   FOG       64  63  97 SW8       29.75F VSB 3/4
PORT LAVACA    CLOUDY    62  62 100 SW7       29.76F FOG
CORPUS CHRISTI CLOUDY    62  61  96 S8        29.76S FOG
KINGSVILLE NAS CLOUDY    62  62 100 S7        29.76F
COTULLA        CLEAR     56  50  80 CALM      29.75F
LAREDO         CLOUDY    60  57  89 SE8       29.74F
BROWNSVILLE    MOCLDY    69  68  96 S10       29.74F
PORT ISABEL    MOCLDY    69  69 100 S12       29.72F FOG
HEBBRONVILLE   FOG       59  58  98 S3        29.77S VSB 1/4
MCALLEN        CLOUDY    68  65  90 S7        29.74F FOG
WESLACO        CLOUDY    67  66  97 S8        29.72F FOG
FALFURRIAS     CLOUDY    63  61  96 CALM      29.76F VSB 1/2
EDINBURG       CLOUDY    67  65  93 S5        29.75F FOG
$$



USA.gov is the U.S. government's official web portal to all federal, state and local government web resources and services.